This is the latest recevied weather packets stored in our database for station/object KC3BHK-2. If no packets are shown the sender has not sent any weather packets the latest 10 day(s).
| Time | Temp. | Humidity | Pressure | Rain* | Wind** | Luminosity | Snow |
|---|---|---|---|---|---|---|---|
| 1778018000 | 28.33° C | - | - | 0 mm | 2.68 m/s, 167° | - | - |
| 1778017695 | 27.78° C | - | - | 0 mm | 3.13 m/s, 208° | - | - |
| 1778017391 | 26.67° C | - | - | 0 mm | 3.58 m/s, 211° | - | - |
| 1778017086 | 26.67° C | - | - | 0 mm | 5.81 m/s, 136° | - | - |
| 1778016779 | 27.22° C | - | - | 0 mm | 3.58 m/s, 186° | - | - |
| 1778016474 | 26.67° C | - | - | 0 mm | 5.36 m/s, 173° | - | - |
| 1778016169 | 26.67° C | - | - | 0 mm | 5.81 m/s, 150° | - | - |
| 1778015864 | 26.67° C | - | - | 0 mm | 4.02 m/s, 214° | - | - |
| 1778015560 | 26.67° C | - | - | 0 mm | 6.71 m/s, 165° | - | - |
| 1778015255 | 27.78° C | - | - | 0 mm | 4.92 m/s, 156° | - | - |
| 1778014948 | 28.89° C | - | - | 0 mm | 5.36 m/s, 184° | - | - |
| 1778014643 | 27.78° C | - | - | 0 mm | 3.13 m/s, 235° | - | - |
| 1778014338 | 28.33° C | - | - | 0 mm | 6.71 m/s, 177° | - | - |
| 1778014033 | 28.89° C | - | - | 0 mm | 5.81 m/s, 146° | - | - |
| 1778013728 | 28.89° C | - | - | 0 mm | 7.15 m/s, 218° | - | - |
| 1778013423 | 28.89° C | - | - | 0 mm | 4.47 m/s, 174° | - | - |
| 1778013116 | 28.33° C | - | - | 0 mm | 5.36 m/s, 186° | - | - |
| 1778012811 | 28.33° C | - | - | 0 mm | 4.02 m/s, 181° | - | - |
| 1778012507 | 29.44° C | - | - | 0 mm | 5.81 m/s, 194° | - | - |
| 1778012202 | 28.89° C | - | - | 0 mm | 6.71 m/s, 190° | - | - |
| 1778011896 | 27.78° C | - | - | 0 mm | 6.71 m/s, 197° | - | - |
| 1778011591 | 28.33° C | - | - | 0 mm | 4.02 m/s, 169° | - | - |
| 1778011284 | 29.44° C | - | - | 0 mm | 4.92 m/s, 218° | - | - |
| 1778010674 | 28.89° C | - | - | 0 mm | 9.83 m/s, 162° | - | - |
| 1778010370 | 29.44° C | - | - | 0 mm | 9.83 m/s, 146° | - | - |
* Rain latest hour (hover to see other rain measurements)
** Current wind speed in m/s (hover to see current wind gust speed)